Location: Gensac
(43.2177°N, 1.1313°E)
Time: 00:37:47
(UTC+00:00)

Daily predictions for brighter satellites

Satellite Brightness Start Highest point End
(mag) Time Altitude Azimuth Time Altitude Azimuth Time Altitude Azimuth
Cosmos 2082 Rocket 3.6 03:49:32 34° ESE 03:49:32 34° ESE 03:54:26 10° NE
COSMOS 2455 4.1 03:58:09 34° NE 03:58:43 35° NE 04:04:09 10° ESE
Cosmos 1980 Rocket 2.8 04:14:14 51° SE 04:14:14 51° SE 04:18:29 10° SSE
Cosmos 2279 Rocket 4.1 04:14:29 70° SE 04:14:29 70° SE 04:20:06 10° SSE
Cosmos 2098 Rocket 4.1 04:15:58 64° E 04:15:58 64° E 04:21:24 10° SSE
Cosmos 967 Rocket 4.4 04:24:15 79° N 04:24:36 82° ENE 04:31:04 10° SE
Tiangong 1.3 04:27:21 13° ESE 04:27:21 13° ESE 04:27:47 10° ESE
Cosmos 372 Rocket 4.4 04:33:37 53° NE 04:34:16 57° ENE 04:39:14 10° SE
Cosmos 2333 Rocket 4.3 04:33:56 11° N 04:38:02 22° NE 04:42:27 10° E
Cosmos 1606 Rocket 4.4 04:43:12 35° NNE 04:44:39 49° ENE 04:48:55 10° SSE
Cosmos 2142 Rocket 4.3 04:47:06 32° NNW 04:50:10 76° W 04:56:20 10° S
Helios 1A Rocket 4.3 04:51:53 10° SE 04:54:48 28° ENE 04:55:47 24° NE
USA 234 4.5 04:50:54 10° NE 04:56:08 26° N 04:57:47 24° NNW
SL-4 R/B 3.9 05:03:15 15° NNE 05:03:15 15° NNE 05:04:20 10° NE
Cosmos 2322 Rocket 4.0 05:02:12 10° N 05:06:59 27° NE 05:11:44 10° ESE
Meteor 2-3 Rocket 4.0 05:03:38 10° S 05:09:20 69° E 05:15:00 10° NNE
Cosmos 1726 Rocket 3.7 05:08:07 19° N 05:11:07 69° E 05:15:18 10° SSE
Cosmos 489 Rocket 4.4 05:07:00 10° SSW 05:13:19 84° WNW 05:19:38 10° NNE
Nadezhda 4 Rocket 3.9 05:08:01 10° SSW 05:14:18 72° W 05:20:36 10° N
Cosmos 1428 Rocket 4.4 05:09:12 10° S 05:15:25 84° W 05:21:43 10° N
CZ-4 R/B 3.6 05:12:15 10° NNE 05:16:55 84° WNW 05:21:31 10° SSW
NOSS 2-1 (D) 3.3 05:17:47 58° NW 05:18:32 86° WSW 05:23:28 10° SSE
SL-24 R/B - RUBIN 2 4.5 05:19:22 30° SW 05:19:22 30° SW 05:22:32 10° S
Cosmos 2237 4.1 05:15:45 24° NNW 05:19:19 89° WSW 05:25:00 10° SSE
USA 59 Rocket -0.2 05:20:26 55° WNW 05:21:13 74° SW 05:26:14 10° SSE
Cosmos 841 Rocket 3.4 05:16:12 10° SSW 05:21:22 66° WNW 05:26:37 10° NNE
COSMOS 2406 3.1 05:16:13 10° SSW 05:21:53 82° WNW 05:27:36 10° NNE
CZ-3 R/B 4.2 05:14:25 19° WSW 05:22:13 25° SW 05:29:23 10° S
NOSS 2-1 (E) 3.3 05:25:12 43° NW 05:26:24 89° ENE 05:31:17 10° SE
Cosmos 1933 3.6 05:27:10 42° WSW 05:27:10 42° WSW 05:30:14 10° SSW
NOSS 3-1 (C) 4.1 05:21:26 21° NW 05:26:50 90° NE 05:35:53 10° SE
Cosmos 1892 Rocket 3.4 05:24:01 10° S 05:28:22 89° WNW 05:32:47 10° N
Cosmos 2195 Rocket 4.4 05:22:29 10° S 05:28:44 83° W 05:35:06 10° N
ATLAS CENTAUR Rocket 4.5 05:27:50 10° SSW 05:32:16 26° SSE 05:44:02 10° ESE
Cosmos 2082 Rocket 2.6 05:31:29 29° W 05:33:25 37° WNW 05:38:37 10° N
SL-16 R/B 2.5 05:28:41 12° NNW 05:33:54 69° ENE 05:39:31 10° SSE
IRS-1D 3.8 05:39:19 10° N 05:44:00 42° WNW 05:48:46 10° SW
COSMOS 2455 3.2 05:41:19 23° NW 05:44:45 45° WSW 05:50:25 10° S
Cosmos 1898 Rocket 3.9 05:42:41 23° NW 05:45:26 41° WSW 05:50:20 10° S
NOSS 2-1 (C) 3.7 05:44:49 30° WNW 05:46:25 50° SW 05:51:15 10° SSE
Meteor 2-20 4.3 05:40:55 10° N 05:47:03 77° W 05:53:06 10° S
Cosmos 405 Rocket 4.2 05:44:13 10° SSE 05:47:07 32° E 05:50:05 10° NNE
Cosmos-2242 2.9 05:51:15 10° N 05:55:30 89° WSW 05:59:41 10° S
COSMO-SKYMED 1 2.8 05:51:48 10° S 05:55:42 42° W 05:59:10 13° NNW
Cosmos 1980 Rocket 3.6 05:56:02 17° W 05:56:14 17° W 05:59:40 10° SW
Cosmos 2278 3.7 05:51:19 10° NNW 05:57:01 90° NE 06:02:39 10° SSE
SKYMED 2 4.5 05:55:11 10° SSW 05:58:54 28° W 06:01:14 18° NW
Tiangong -0.5 05:59:42 17° WSW 06:01:17 24° SSW 06:03:59 10° SSE
Cosmos 1627 Rocket 4.5 05:55:18 10° SSW 06:01:18 58° W 06:07:21 10° N
Cosmos 1484 Rocket 2.4 05:59:16 10° N 06:02:38 58° WNW 06:05:57 10° SSW
Cosmos 2058 Rocket 3.0 05:58:15 10° NNW 06:02:40 68° W 06:07:01 10° S
Meteor 2-2 Rocket 4.2 06:00:19 10° NNW 06:06:00 73° W 06:11:45 10° S
Okean 1 2.9 06:04:49 10° NNW 06:08:22 71° W 06:11:54 10° S
Meteor 2-20 Rocket 4.2 06:03:28 10° NNW 06:09:13 72° W 06:14:52 10° S
Cosmos 1937 Rocket 4.1 06:06:02 13° NW 06:09:58 33° W 06:14:30 10° SSW
ATLAS 2AS CENTAUR R/B 4.0 06:06:41 10° S 06:13:21 45° ESE 06:19:51 10° NE
SL-08 ROCKET BODY 4.5 06:08:55 10° S 06:14:46 82° E 06:20:37 10° N
ARIANE 5 R/B 3.6 06:09:48 10° NNE 06:14:53 50° E 06:19:56 10° S
Cosmos 2285 Rocket 4.3 06:08:43 10° NNW 06:15:07 72° ENE 06:21:30 10° SSE
IRIDIUM 104 4.3 06:11:27 10° S 06:16:40 84° W 06:21:55 10° N
Cosmos 2333 Rocket 2.3 06:17:07 10° NNW 06:22:51 67° WSW 06:28:30 10° SSE
Cosmos 1833 4.5 06:18:39 10° SSW 06:24:16 76° ESE 06:29:57 10° NNE
SAR-Lupe-4 4.1 06:21:31 10° NNE 06:25:03 62° ESE 06:28:33 10° S
IRIDIUM 114 4.3 06:20:37 10° S 06:25:48 69° W 06:31:02 10° N
SMAP 3.1 06:21:24 10° NNE 06:26:06 89° W 06:30:44 10° SSW
Helios 1A Rocket 4.1 06:25:22 10° SW 06:27:26 15° W 06:29:20 11° WNW
Cosmos 2360 Rocket 2.2 06:23:43 10° NNW 06:29:22 86° WSW 06:34:59 10° SSE
Landsat 7 3.9 06:27:22 10° NNE 06:32:03 85° ESE 06:36:42 10° SSW
Cosmos 1814 Rocket 4.0 06:27:25 10° SSW 06:32:34 63° WNW 06:37:50 10° NNE
NOSS 3-1 (A) 4.2 06:26:02 10° NW 06:33:26 77° WSW 06:42:31 10° SSE
CBERS-1 4.2 06:29:49 10° N 06:34:43 49° WNW 06:39:36 10° SW
IRIDIUM 103 4.4 06:29:53 10° SSW 06:34:59 57° W 06:40:09 10° N
IGS 5A 4.0 06:31:53 10° N 06:35:30 33° WNW 06:39:06 10° SW
BREEZE-M DEB (TANK) 2.2 06:34:38 10° NW 06:36:20 49° NNE 06:39:08 10° ESE
USA 234 4.3 06:32:10 10° E 06:37:59 35° NNE 06:43:48 10° NW
Cosmos 1758 Rocket 3.6 06:34:34 10° SSW 06:38:56 57° W 06:43:17 10° N
Cosmos 1733 2.6 06:38:23 10° SW 06:39:54 22° WNW 06:41:27 10° NNW
Cosmos 1743 2.2 06:36:52 10° SSW 06:40:04 66° W 06:43:19 10° N
SL-4 R/B 2.6 06:37:20 10° NW 06:40:16 31° NNE 06:43:09 10° E
IRS-1C 4.2 06:38:43 10° NNE 06:44:05 87° ESE 06:49:24 10° SSW
Meteor 2-6 Rocket 4.5 06:40:25 10° NNW 06:46:17 61° W 06:52:07 10° S
Thor Agena Rocket 3.6 06:42:18 10° N 06:47:15 55° WNW 06:52:07 10° SSW
